Weather Roundup
Issued by NWS Chicago, IL

Home | Current Version | Previous Version | Graphics & Text | Print | Product List | Glossary On
Versions: 1 2 3 4 5 6 7 8 9 10 11 12 13 14 15 16 17 18 19 20 21 22 23 24 25 26 27 28 29 30 31 32 33 34 35 36 37 38 39 40 41 42 43 44 45 46 47 48 49 50
000
NZUS59 KLOT 051400
HRRLOT

CHICAGO AREA WEATHER ROUNDUP
NATIONAL WEATHER SERVICE CHICAGO/ROMEOVILLE IL
900 AM CDT SUN JUL 05 2015

NOTE: "FAIR" INDICATES FEW OR NO CLOUDS BELOW 12,000 FEET WITH NO
SIGNIFICANT WEATHER AND/OR OBSTRUCTIONS TO VISIBILITY.

* THESE STATIONS ARE NOT UNDER NWS QUALITY CONTROL. THEY ALSO MAY NOT
  REPORT WEATHER SUCH AS PRECIPITATION OR FOG.

ILZ005-006-012>014-019>023-051500-
NORTHEAST ILLINOIS

CITY           SKY/WX    TMP DP  RH WIND       PRES   REMARKS
OHARE          SUNNY     74  61  63 S3        30.08F FOG
MIDWAY         SUNNY     77  62  59 SW5       30.09S
AURORA         SUNNY     72  62  71 CALM      30.10S HAZE
WAUKEGAN       NOT AVBL
DUPAGE AIRPORT SUNNY     71  62  73 S3        30.09S HAZE
WHEELING       SUNNY     74  60  61 S5        30.10F
NORTHERLY IS     N/A     76  58  53 W2          N/A
$$

WIZ051-052-058>065-066-070>072-051500-
SOUTHEAST WISCONSIN

CITY           SKY/WX    TMP DP  RH WIND       PRES   REMARKS
MILWAUKEE      MOSUNNY   75  60  59 SW7       30.08S
KENOSHA*       SUNNY     74  62  66 SW3       30.09F
RACINE*        SUNNY     75  60  59 VRB3      30.10S
WAUKESHA       SUNNY     70  61  73 SW6       30.10R
$$

INZ001>003-010>013-019-020-051500-
NORTHWEST INDIANA

CITY           SKY/WX    TMP DP  RH WIND       PRES   REMARKS
GARY*          SUNNY    N/A N/A N/A CALM      30.11R HAZE
MICHIGAN CITY* NOT AVBL
RENSSELAER*    NOT AVBL
$$

LMZ740>746-051500-
SOUTHERN LAKE MICHIGAN

STATION/POSITION TIME  SKY/WX   TEMP WIND        PRES    VSBY
                                AIR  DIR/SP/G
                 (UTC)          (F)  (DEG/KT/KT) (MB)    (MI)
HARRISON CRIB    1300            71  310/  1/  2   N/A
BURNHAM HARBOR   1300            74  270/  3/  6   N/A
CALUMET HARBOR   1300            72  230/  3/  4   N/A
BURNS HARBOR     1300            70  200/  4/  6 1019.6S
MICHIGAN CITY    1300            69  230/  3/  5   N/A
$$

ABBREVIATIONS USED IN REMARKS
   TC - TEMPERATURE IN CELSIUS
  WCI - WIND CHILL INDEX
   HX - HEAT INDEX
  VSB - VISIBILITY
$$


USA.gov is the U.S. government's official web portal to all federal, state and local government web resources and services.